Location: Aalen
(48.8330°N, 10.1000°E)
Time: 11:59:45
(UTC+02:00)

IRIDIUM 33 DEB - Visible Passes

Search period start: 17 August 2022 00:00
Search period end: 27 August 2022 00:00
Orbit: 767 x 786 km, 86.4° (Epoch: 17 August)

Date Brightness Start Highest point End Pass type
(mag) Time Alt. Az. Time Alt. Az. Time Alt. Az.
18 Aug ? 05:32:52 10° NNE 05:37:37 34° ENE 05:42:19 10° SE visible
19 Aug ? 04:59:35 10° NNE 05:03:28 21° ENE 05:07:19 10° ESE visible
20 Aug ? 04:27:03 10° NE 04:29:10 12° ENE 04:31:16 10° E visible
21 Aug ? 05:31:50 10° N 05:36:52 46° E 05:41:50 10° SSE visible
22 Aug ? 04:58:22 10° NNE 05:02:47 27° ENE 05:07:10 10° SE visible
23 Aug ? 04:25:17 10° NNE 04:28:34 17° ENE 04:31:50 10° ESE visible
24 Aug ? 05:30:53 10° N 05:36:03 63° E 05:41:11 10° SSE visible
25 Aug ? 04:57:15 10° N 05:02:03 36° ENE 05:06:48 10° SE visible
26 Aug ? 04:23:54 10° NNE 04:27:55 22° ENE 04:31:53 10° ESE visible
